This is the latest recevied weather packets stored in our database for station/object DL6MM-4. If no packets are shown the sender has not sent any weather packets the latest 10 day(s).
| Time | Temp. | Humidity | Pressure | Rain* | Wind** | Luminosity | Snow |
|---|---|---|---|---|---|---|---|
| 1777802955 | 23.89° C | 36% | 1010.7 hPa | 0 mm | - | - | - |
| 1777802355 | 23.33° C | 39% | 1010.9 hPa | 0 mm | - | - | - |
| 1777801755 | 23.33° C | 37% | 1010.9 hPa | 0 mm | - | - | - |
| 1777801155 | 23.33° C | 40% | 1010.9 hPa | 0 mm | - | - | - |
| 1777800555 | 22.78° C | 40% | 1010.9 hPa | 0 mm | - | - | - |
| 1777799955 | 22.78° C | 43% | 1011 hPa | 0 mm | - | - | - |
| 1777799355 | 22.22° C | 53% | 1011.1 hPa | 0 mm | - | - | - |
| 1777798755 | 21.11° C | 56% | 1011.1 hPa | 0 mm | - | - | - |
| 1777798155 | 20° C | 56% | 1011.1 hPa | 0 mm | - | - | - |
| 1777797555 | 19.44° C | 58% | 1011 hPa | 0 mm | - | - | - |
| 1777796955 | 19.44° C | 59% | 1011 hPa | 0 mm | - | - | - |
| 1777796355 | 19.44° C | 59% | 1011.1 hPa | 0 mm | - | - | - |
| 1777795755 | 19.44° C | 60% | 1010.9 hPa | 0 mm | - | - | - |
| 1777795155 | 18.89° C | 59% | 1011 hPa | 0 mm | - | - | - |
| 1777794555 | 18.89° C | 61% | 1011.1 hPa | 0 mm | - | - | - |
| 1777793955 | 18.89° C | 60% | 1011.1 hPa | 0 mm | - | - | - |
| 1777793355 | 19.44° C | 59% | 1011.1 hPa | 0 mm | - | - | - |
| 1777792755 | 18.89° C | 57% | 1011.1 hPa | 0 mm | - | - | - |
| 1777792155 | 18.89° C | 66% | 1011.1 hPa | 0 mm | - | - | - |
| 1777791555 | 17.78° C | 66% | 1011 hPa | 0 mm | - | - | - |
| 1777790955 | 17.22° C | 66% | 1011 hPa | 0 mm | - | - | - |
| 1777790355 | 17.22° C | 64% | 1010.9 hPa | 0 mm | - | - | - |
| 1777789755 | 16.67° C | 65% | 1011.1 hPa | 0 mm | - | - | - |
| 1777789155 | 16.11° C | 67% | 1011.1 hPa | 0 mm | - | - | - |
| 1777788555 | 15.56° C | 70% | 1011.2 hPa | 0 mm | - | - | - |
* Rain latest hour (hover to see other rain measurements)
** Current wind speed in m/s (hover to see current wind gust speed)